KE7MWT Weather Reports


Display with metric or nautical units.
time (UTC)temp
F
wind
direction
speed
MPH
gust
MPH
rain 1hr
in
rain 24hr
in
rain mn
in
humidity
%
barometer
mb
20260902090317 84 116 0.0 2.0 0.00 0.00 0.00 57 1017.0
20260902090018 84 116 0.0 2.0 0.00 0.00 0.00 61 1013.4
20260902085822 84 116 0.0 2.0 0.00 0.00 0.00 58 1017.0
20260902085351 85 116 0.0 2.0 0.00 0.00 0.00 57 1017.1
20260902084835 85 116 0.0 1.0 0.00 0.00 0.00 56 1017.1
20260902084526 85 116 0.0 2.0 0.00 0.00 0.00 60 1013.5
20260902084343 85 116 0.0 2.0 0.00 0.00 0.00 56 1017.1
20260902083827 86 116 0.0 2.0 0.00 0.00 0.00 55 1017.1
20260902083315 86 116 0.0 2.0 0.00 0.00 0.00 54 1017.2
20260902083027 86 116 0.0 2.0 0.00 0.00 0.00 57 1013.6
20260902082820 87 116 0.0 2.0 0.00 0.00 0.00 54 1017.1
20260902082329 86 111 0.0 2.0 0.00 0.00 0.00 54 1017.1
20260902081833 86 111 0.0 2.0 0.00 0.00 0.00 54 1017.1
20260902081532 86 111 0.0 2.0 0.00 0.00 0.00 58 1013.6
20260902081321 87 111 0.0 2.0 0.00 0.00 0.00 54 1017.2
20260902080826 87 111 0.0 2.0 0.00 0.00 0.00 53 1017.2
20260902080319 87 119 0.0 2.0 0.00 0.00 0.00 52 1017.1
20260902080034 87 92 0.0 2.0 0.00 0.00 0.00 56 1013.5
20260902075824 87 92 0.0 2.0 0.00 0.00 0.00 52 1017.1
20260902075353 87 92 0.0 2.0 0.00 0.00 0.00 53 1017.0
20260902074817 87 92 0.0 2.0 0.00 0.00 0.00 53 1017.0
20260902074521 87 92 0.0 2.0 0.00 0.00 0.00 56 1013.4
20260902074326 87 92 0.0 2.0 0.00 0.00 0.00 52 1017.0
20260902073831 88 92 1.0 2.0 0.00 0.00 0.00 53 1016.9
20260902073319 87 92 0.0 2.0 0.00 0.00 0.00 53 1016.9
20260902073026 87 92 0.0 2.0 0.00 0.00 0.00 57 1013.3
20260902072824 87 92 0.0 2.0 0.00 0.00 0.00 53 1016.9
20260902072332 88 92 0.0 2.0 0.00 0.00 0.00 52 1016.9
20260902071817 88 92 1.0 2.0 0.00 0.00 0.00 52 1016.8
20260902071529 87 92 0.0 3.0 0.00 0.00 0.00 55 1013.2
20260902071326 88 92 0.0 3.0 0.00 0.00 0.00 52 1016.8
20260902070815 88 92 1.0 2.0 0.00 0.00 0.00 51 1016.7
20260902070324 88 77 0.0 2.0 0.00 0.00 0.00 51 1016.8
20260902070033 87 76 1.0 2.0 0.00 0.00 0.00 54 1013.2
20260902065849 88 85 1.0 2.0 0.00 0.00 0.00 51 1016.7
20260902065317 88 76 0.0 3.0 0.00 0.00 0.00 50 1016.6
20260902064842 88 76 1.0 3.0 0.00 0.00 0.00 50 1016.5
20260902064532 87 80 1.0 3.0 0.00 0.00 0.00 54 1013.0
20260902064330 88 89 1.0 3.0 0.00 0.00 0.00 51 1016.6
20260902063815 87 70 1.0 2.0 0.00 0.00 0.00 52 1016.5
20260902063324 87 171 0.0 2.0 0.00 0.00 0.00 51 1016.5
20260902063021 87 171 0.0 2.0 0.00 0.00 0.00 54 1012.9
20260902062829 87 171 0.0 2.0 0.00 0.00 0.00 50 1016.5
20260902062318 88 171 0.0 2.0 0.00 0.00 0.00 50 1016.5
20260902061823 87 171 0.0 0.0 0.00 0.00 0.00 51 1016.6
20260902061542 87 171 0.0 0.0 0.00 0.00 0.00 54 1013.1
20260902061316 88 171 0.0 0.0 0.00 0.00 0.00 49 1016.6
20260902060821 88 171 0.0 2.0 0.00 0.00 0.00 49 1016.6
20260902060350 88 171 0.0 2.0 0.00 0.00 0.00 48 1016.6
20260902060031 88 171 0.0 2.0 0.00 0.00 0.00 51 1013.2
20260902055854 89 171 0.0 1.0 0.00 0.00 0.00 48 1016.7
20260902055321 89 171 0.0 2.0 0.00 0.00 0.00 48 1016.7
20260902054826 89 171 0.0 2.0 0.00 0.00 0.00 47 1016.7
20260902054535 89 171 0.0 2.0 0.00 0.00 0.00 50 1013.2
20260902054314 89 171 0.0 2.0 0.00 0.00 0.00 47 1016.7
20260902053840 89 174 0.0 3.0 0.00 0.00 0.00 46 1016.6
20260902053328 89 175 1.0 3.0 0.00 0.00 0.00 47 1016.7
20260902053023 88 186 2.0 3.0 0.00 0.00 0.00 50 1013.3
20260902052833 88 186 1.0 3.0 0.00 0.00 0.00 47 1016.8
20260902052322 88 231 0.0 1.0 0.00 0.00 0.00 47 1016.7
20260902051827 88 279 0.0 0.0 0.00 0.00 0.00 47 1016.7
20260902051527 88 279 0.0 0.0 0.00 0.00 0.00 51 1013.2
20260902051320 88 279 0.0 0.0 0.00 0.00 0.00 47 1016.6
20260902050845 88 279 0.0 0.0 0.00 0.00 0.00 47 1016.5
20260902050353 88 279 0.0 0.0 0.00 0.00 0.00 48 1016.5
20260902050009 87 279 0.0 0.0 0.00 0.00 0.00 52 1013.1
20260902045817 88 279 0.0 0.0 0.00 0.00 0.00 49 1016.5
20260902045326 88 279 0.0 0.0 0.00 0.00 0.00 48 1016.5
20260902044831 88 279 0.0 0.0 0.00 0.00 0.00 48 1016.5
20260902044514 88 279 0.0 0.0 0.00 0.00 0.00 52 1012.9
20260902044320 88 279 0.0 0.0 0.00 0.00 0.00 47 1016.4
20260902043826 88 279 0.0 0.0 0.00 0.00 0.00 48 1016.4
20260902043313 88 279 0.0 0.0 0.00 0.00 0.00 50 1016.4
20260902043031 88 279 0.0 2.0 0.00 0.00 0.00 53 1012.9
20260902042819 88 279 0.0 2.0 0.00 0.00 0.00 48 1016.3
20260902042328 88 279 0.0 0.0 0.00 0.00 0.00 48 1016.3
20260902041817 88 279 0.0 0.0 0.00 0.00 0.00 47 1016.3
20260902041527 88 279 0.0 0.0 0.00 0.00 0.00 51 1012.8
20260902041346 88 279 0.0 2.0 0.00 0.00 0.00 47 1016.2
20260902040830 88 279 0.0 2.0 0.00 0.00 0.00 47 1016.2
20260902040319 89 279 0.0 0.0 0.00 0.00 0.00 47 1016.2
20260902040006 88 279 0.0 0.0 0.00 0.00 0.00 50 1012.7
20260902035824 89 279 0.0 0.0 0.00 0.00 0.00 46 1016.2
20260902035352 89 279 0.0 0.0 0.00 0.00 0.00 46 1016.1
20260902034816 89 279 0.0 0.0 0.00 0.00 0.00 45 1016.0
20260902034514 89 279 0.0 0.0 0.00 0.00 0.00 49 1012.5
20260902034325 89 279 0.0 0.0 0.00 0.00 0.00 46 1015.9
20260902033850 90 279 0.0 0.0 0.00 0.00 0.00 44 1015.8
20260902033318 90 279 0.0 0.0 0.00 0.00 0.00 45 1015.7
20260902033038 89 279 0.0 0.0 0.00 0.00 0.00 48 1012.2
20260902032842 90 279 0.0 0.0 0.00 0.00 0.00 45 1015.6
20260902032351 90 279 0.0 0.0 0.00 0.00 0.00 44 1015.4
20260902031814 90 279 0.0 0.0 0.00 0.00 0.00 44 1015.4
20260902031523 89 279 0.0 0.0 0.00 0.00 0.00 47 1011.9
20260902031322 90 279 0.0 0.0 0.00 0.00 0.00 43 1015.3
20260902030847 90 279 0.0 0.0 0.00 0.00 0.00 43 1015.2
20260902030320 90 279 0.0 0.0 0.00 0.00 0.00 44 1015.1
20260902030027 90 279 0.0 0.0 0.00 0.00 0.00 47 1011.6
20260902025824 91 279 0.0 0.0 0.00 0.00 0.00 41 1015.0
20260902025331 91 279 0.0 0.0 0.00 0.00 0.00 42 1015.0
20260902024815 91 279 0.0 0.0 0.00 0.00 0.00 41 1015.0
20260902024507 91 279 0.0 0.0 0.00 0.00 0.00 44 1011.5
20260902024325 92 279 0.0 0.0 0.00 0.00 0.00 41 1014.9
20260902023831 92 279 0.0 0.0 0.00 0.00 0.00 40 1014.8
20260902023322 92 279 0.0 0.0 0.00 0.00 0.00 39 1014.9
20260902023011 92 279 0.0 0.0 0.00 0.00 0.00 43 1011.4
20260902022828 92 279 0.0 0.0 0.00 0.00 0.00 39 1014.8
20260902022319 93 279 0.0 0.0 0.00 0.00 0.00 39 1014.8
20260902021827 93 279 0.0 0.0 0.00 0.00 0.00 39 1014.7
20260902021525 93 279 0.0 0.0 0.00 0.00 0.00 42 1011.3
20260902021318 93 279 0.0 0.0 0.00 0.00 0.00 38 1014.7
20260902020830 94 279 0.0 0.0 0.00 0.00 0.00 37 1014.6
20260902020341 94 279 0.0 2.0 0.00 0.00 0.00 36 1014.6
20260902020030 94 279 0.0 2.0 0.00 0.00 0.00 39 1011.1
20260902015829 95 279 0.0 2.0 0.00 0.00 0.00 35 1014.6
20260902015319 96 279 0.0 2.0 0.00 0.00 0.00 34 1014.6
20260902014847 96 279 0.0 2.0 0.00 0.00 0.00 34 1014.5
20260902014529 95 279 0.0 2.0 0.00 0.00 0.00 37 1011.0
20260902014317 95 279 0.0 2.0 0.00 0.00 0.00 34 1014.5
20260902013825 96 279 0.0 2.0 0.00 0.00 0.00 34 1014.5
20260902013316 96 279 0.0 2.0 0.00 0.00 0.00 32 1014.4
20260902013007 96 279 1.0 3.0 0.00 0.00 0.00 36 1011.0
20260902012823 96 279 2.0 3.0 0.00 0.00 0.00 32 1014.5
20260902012315 97 282 1.0 2.0 0.00 0.00 0.00 33 1014.6
20260902011826 97 302 1.0 2.0 0.00 0.00 0.00 32 1014.6
20260902011512 97 310 1.0 3.0 0.00 0.00 0.00 36 1011.3
20260902011317 98 339 1.0 3.0 0.00 0.00 0.00 32 1014.7
20260902010825 98 275 2.0 4.0 0.00 0.00 0.00 32 1014.7
20260902010338 98 300 2.0 4.0 0.00 0.00 0.00 33 1014.8
20260902010023 98 239 1.0 3.0 0.00 0.00 0.00 36 1011.4
20260902005824 98 194 1.0 3.0 0.00 0.00 0.00 32 1014.8
20260902005314 98 257 2.0 4.0 0.00 0.00 0.00 32 1014.8
20260902004822 98 263 3.0 4.0 0.00 0.00 0.00 32 1014.9
20260902004528 98 233 2.0 5.0 0.00 0.00 0.00 37 1011.5
20260902004313 98 246 2.0 4.0 0.00 0.00 0.00 33 1014.9
20260902003821 99 156 2.0 5.0 0.00 0.00 0.00 33 1015.0
20260902003353 98 169 3.0 5.0 0.00 0.00 0.00 33 1015.0
20260902003032 98 159 1.0 5.0 0.00 0.00 0.00 36 1011.6
20260902002823 99 118 1.0 5.0 0.00 0.00 0.00 32 1015.1
20260902002314 99 167 1.0 3.0 0.00 0.00 0.00 33 1015.1
20260902001842 99 258 1.0 5.0 0.00 0.00 0.00 32 1015.1
20260902001510 99 279 1.0 5.0 0.00 0.00 0.00 36 1011.6
20260902001331 99 279 2.0 5.0 0.00 0.00 0.00 33 1015.1
20260902000818 99 134 2.0 5.0 0.00 0.00 0.00 33 1015.1
20260902000329 99 215 3.0 4.0 0.00 0.00 0.00 33 1015.2
20260902000020 99 323 2.0 4.0 0.00 0.00 0.00 37 1011.8
20260901235815 99 305 2.0 4.0 0.00 0.00 0.00 33 1015.2
20260901235326 99 215 1.0 5.0 0.00 0.00 0.00 33 1015.2
20260901234834 99 169 3.0 5.0 0.00 0.00 0.00 33 1015.2
20260901234523 99 245 3.0 7.0 0.00 0.00 0.00 36 1011.8
20260901234324 100 257 2.0 7.0 0.00 0.00 0.00 32 1015.3
20260901233832 99 233 3.0 7.0 0.00 0.00 0.00 33 1015.3
20260901233342 100 245 3.0 7.0 0.00 0.00 0.00 33 1015.3
20260901233036 99 211 1.0 7.0 0.00 0.00 0.00 36 1011.9
20260901232833 100 166 3.0 7.0 0.00 0.00 0.00 34 1015.3
20260901232324 100 205 2.0 6.0 0.00 0.00 0.00 32 1015.4
20260901231830 100 207 1.0 5.0 0.00 0.00 0.00 32 1015.4
20260901231512 99 186 3.0 9.0 0.00 0.00 0.00 36 1012.0
20260901231320 100 65 0.0 9.0 0.00 0.00 0.00 33 1015.4
20260901230828 100 187 3.0 9.0 0.00 0.00 0.00 32 1015.4
20260901230341 100 228 4.0 9.0 0.00 0.00 0.00 32 1015.5
20260901230016 100 212 3.0 9.0 0.00 0.00 0.00 36 1012.1
20260901225827 100 284 1.0 8.0 0.00 0.00 0.00 33 1015.5
20260901225318 99 125 2.0 10.0 0.00 0.00 0.00 33 1015.5
20260901224813 99 262 3.0 10.0 0.00 0.00 0.00 34 1015.6
20260901224533 99 210 6.0 11.0 0.00 0.00 0.00 37 1012.2
20260901224343 100 191 3.0 6.0 0.00 0.00 0.00 33 1015.7
20260901223850 99 184 1.0 4.0 0.00 0.00 0.00 35 1015.7
20260901223323 99 39 1.0 4.0 0.00 0.00 0.00 33 1015.8
20260901223029 100 168 1.0 7.0 0.00 0.00 0.00 36 1012.4
20260901222849 101 140 1.0 7.0 0.00 0.00 0.00 33 1015.9
20260901222319 100 175 2.0 8.0 0.00 0.00 0.00 34 1015.9
20260901221827 99 218 3.0 7.0 0.00 0.00 0.00 34 1016.0
20260901221530 98 211 1.0 4.0 0.00 0.00 0.00 38 1012.7
20260901221318 99 101 1.0 4.0 0.00 0.00 0.00 34 1016.1
20260901220825 99 179 1.0 4.0 0.00 0.00 0.00 35 1016.1
20260901220315 99 246 1.0 7.0 0.00 0.00 0.00 34 1016.2
20260901220015 99 182 4.0 7.0 0.00 0.00 0.00 37 1012.8
20260901215822 100 190 3.0 7.0 0.00 0.00 0.00 33 1016.2
20260901215313 100 128 1.0 5.0 0.00 0.00 0.00 34 1016.2
20260901214820 100 175 2.0 5.0 0.00 0.00 0.00 35 1016.3
20260901214519 99 225 2.0 9.0 0.00 0.00 0.00 38 1012.9
20260901214315 99 277 3.0 9.0 0.00 0.00 0.00 35 1016.3
20260901213822 99 190 5.0 9.0 0.00 0.00 0.00 35 1016.5
20260901213354 99 215 4.0 8.0 0.00 0.00 0.00 36 1016.6
20260901213028 98 217 1.0 8.0 0.00 0.00 0.00 39 1013.2
20260901212819 99 302 2.0 8.0 0.00 0.00 0.00 34 1016.7
20260901212315 98 199 3.0 9.0 0.00 0.00 0.00 35 1016.7
20260901211821 98 178 4.0 9.0 0.00 0.00 0.00 35 1016.9
20260901211530 98 246 5.0 9.0 0.00 0.00 0.00 40 1013.5
20260901211332 98 215 3.0 9.0 0.00 0.00 0.00 36 1016.9
20260901210819 98 86 1.0 5.0 0.00 0.00 0.00 37 1017.0
20260901210331 98 210 2.0 5.0 0.00 0.00 0.00 36 1017.1
20260901210031 97 207 1.0 5.0 0.00 0.00 0.00 40 1013.6
20260901205837 97 325 1.0 5.0 0.00 0.00 0.00 37 1017.2
20260901205326 98 161 3.0 9.0 0.00 0.00 0.00 36 1017.3
20260901204835 98 232 3.0 9.0 0.00 0.00 0.00 36 1017.4
20260901204518 97 235 4.0 10.0 0.00 0.00 0.00 40 1013.9
20260901204330 98 202 3.0 7.0 0.00 0.00 0.00 37 1017.4
20260901203818 98 226 3.0 7.0 0.00 0.00 0.00 37 1017.5
20260901203330 97 209 1.0 3.0 0.00 0.00 0.00 39 1017.5
20260901203025 96 205 1.0 4.0 0.00 0.00 0.00 42 1014.1
20260901202816 97 282 1.0 4.0 0.00 0.00 0.00 38 1017.6
20260901202347 97 342 2.0 4.0 0.00 0.00 0.00 39 1017.7
20260901201813 95 42 2.0 6.0 0.00 0.00 0.00 40 1017.9
20260901201526 95 261 1.0 6.0 0.00 0.00 0.00 43 1014.4
20260901201345 96 192 0.0 6.0 0.00 0.00 0.00 39 1017.9
20260901200852 95 227 2.0 6.0 0.00 0.00 0.00 40 1018.0
20260901200343 96 150 4.0 6.0 0.00 0.00 0.00 39 1018.0
20260901200028 95 178 1.0 6.0 0.00 0.00 0.00 44 1014.5
20260901195850 96 258 2.0 6.0 0.00 0.00 0.00 40 1018.1
20260901195321 94 308 3.0 6.0 0.00 0.00 0.00 42 1018.0
20260901194829 95 200 1.0 5.0 0.00 0.00 0.00 41 1018.2
20260901194531 94 261 2.0 5.0 0.00 0.00 0.00 45 1014.7
20260901194321 95 202 2.0 5.0 0.00 0.00 0.00 41 1018.2
20260901193813 95 246 1.0 7.0 0.00 0.00 0.00 41 1018.3
20260901193325 95 276 2.0 7.0 0.00 0.00 0.00 40 1018.4
20260901193020 94 271 3.0 7.0 0.00 0.00 0.00 44 1015.0
20260901192814 95 290 4.0 7.0 0.00 0.00 0.00 40 1018.4
20260901192325 94 219 3.0 6.0 0.00 0.00 0.00 42 1018.5
20260901191833 94 232 3.0 6.0 0.00 0.00 0.00 42 1018.5
20260901191540 94 103 1.0 6.0 0.00 0.00 0.00 47 1015.2
20260901191324 94 95 2.0 6.0 0.00 0.00 0.00 42 1018.7
20260901190852 93 185 2.0 5.0 0.00 0.00 0.00 45 1018.8
20260901190323 92 225 2.0 5.0 0.00 0.00 0.00 45 1018.9
20260901190038 92 189 3.0 5.0 0.00 0.00 0.00 47 1015.5
20260901185852 93 181 2.0 5.0 0.00 0.00 0.00 44 1019.0
20260901185322 93 103 1.0 5.0 0.00 0.00 0.00 44 1019.0
20260901184814 92 220 1.0 5.0 0.00 0.00 0.00 46 1019.1
20260901184535 92 226 2.0 5.0 0.00 0.00 0.00 49 1015.6
20260901184325 92 177 1.0 5.0 0.00 0.00 0.00 46 1019.1
20260901183814 91 197 2.0 4.0 0.00 0.00 0.00 47 1019.1
20260901183326 91 294 2.0 6.0 0.00 0.00 0.00 47 1019.2
20260901183018 90 263 2.0 6.0 0.00 0.00 0.00 51 1015.9
20260901182814 91 202 3.0 6.0 0.00 0.00 0.00 46 1019.3
20260901182347 91 355 1.0 6.0 0.00 0.00 0.00 46 1019.4
20260901181814 91 256 3.0 5.0 0.00 0.00 0.00 46 1019.4
20260901181529 91 207 2.0 4.0 0.00 0.00 0.00 51 1015.9
20260901181326 91 355 1.0 3.0 0.00 0.00 0.00 47 1019.3
20260901180814 89 159 1.0 3.0 0.00 0.00 0.00 49 1019.4
20260901180329 89 166 2.0 4.0 0.00 0.00 0.00 48 1019.5
20260901180032 90 180 1.0 5.0 0.00 0.00 0.00 51 1016.0
20260901175818 90 133 1.0 6.0 0.00 0.00 0.00 49 1019.5
20260901175329 89 267 3.0 6.0 0.00 0.00 0.00 49 1019.6
20260901174837 89 157 5.0 6.0 0.00 0.00 0.00 50 1019.6
20260901174538 88 238 3.0 5.0 0.00 0.00 0.00 53 1016.2
20260901174327 89 187 2.0 5.0 0.00 0.00 0.00 49 1019.7
20260901173816 88 234 2.0 5.0 0.00 0.00 0.00 50 1019.6
20260901173348 88 355 1.0 5.0 0.00 0.00 0.00 50 1019.7
20260901173036 88 211 3.0 5.0 0.00 0.00 0.00 54 1016.3
20260901172835 88 223 3.0 5.0 0.00 0.00 0.00 51 1019.7
20260901172325 88 229 2.0 5.0 0.00 0.00 0.00 51 1019.8
20260901171813 88 103 1.0 6.0 0.00 0.00 0.00 51 1019.7
20260901171523 87 254 2.0 6.0 0.00 0.00 0.00 54 1016.3
20260901171344 87 315 2.0 6.0 0.00 0.00 0.00 50 1019.7
20260901170815 87 208 1.0 3.0 0.00 0.00 0.00 52 1019.7
20260901170328 86 277 1.0 4.0 0.00 0.00 0.00 52 1019.6
20260901170005 86 146 1.0 4.0 0.00 0.00 0.00 55 1016.2
20260901165815 86 221 1.0 4.0 0.00 0.08 0.00 52 1019.6
20260901165326 86 221 1.0 5.0 0.00 0.08 0.00 52 1019.6
20260901164813 87 223 4.0 5.0 0.00 0.08 0.00 52 1019.5
20260901164506 86 83 1.0 4.0 0.00 0.00 0.00 56 1016.0
20260901164325 86 156 2.0 4.0 0.00 0.08 0.00 53 1019.5
20260901163813 87 58 1.0 2.0 0.00 0.08 0.00 52 1019.4
20260901163324 86 92 1.0 2.0 0.00 0.08 0.00 53 1019.4
20260901163009 85 192 1.0 4.0 0.00 0.02 0.00 57 1016.0
20260901162832 86 137 0.0 4.0 0.00 0.08 0.00 54 1019.5
20260901162323 86 136 2.0 4.0 0.00 0.08 0.00 54 1019.5
20260901161815 86 150 1.0 2.0 0.00 0.08 0.00 54 1019.4
20260901161520 85 107 1.0 2.0 0.00 0.04 0.00 58 1016.0
20260901161327 86 140 1.0 2.0 0.00 0.08 0.00 54 1019.4
20260901160835 85 76 2.0 3.0 0.00 0.08 0.00 55 1019.5
20260901160324 85 105 1.0 3.0 0.00 0.08 0.00 54 1019.4
20260901160023 84 153 2.0 3.0 0.00 0.08 0.00 58 1015.9
20260901155813 85 119 1.0 3.0 0.00 0.23 0.00 55 1019.4
20260901155345 84 92 1.0 3.0 0.00 0.23 0.00 54 1019.3
20260901154830 85 157 1.0 3.0 0.00 0.23 0.00 54 1019.2
20260901154504 84 95 1.0 3.0 0.00 0.11 0.00 56 1015.8
20260901154322 84 111 2.0 3.0 0.00 0.23 0.00 52 1019.2
20260901153829 84 145 1.0 3.0 0.00 0.23 0.00 53 1019.2
20260901153320 84 98 1.0 2.0 0.00 0.23 0.00 54 1019.2
20260901153007 83 124 0.0 2.0 0.00 0.13 0.00 57 1015.7
20260901152827 84 124 0.0 2.0 0.00 0.23 0.00 54 1019.2
20260901152323 84 144 1.0 3.0 0.00 0.23 0.00 54 1019.2
20260901151851 84 102 1.0 3.0 0.00 0.23 0.00 54 1019.2
20260901151526 83 94 1.0 2.0 0.00 0.14 0.00 57 1015.8
20260901151321 83 119 1.0 2.0 0.00 0.23 0.00 55 1019.2
20260901150827 82 129 0.0 2.0 0.00 0.23 0.00 56 1019.2
20260901150340 82 128 0.0 2.0 0.00 0.23 0.00 57 1019.2
20260901150021 81 101 1.0 2.0 0.00 0.21 0.00 61 1015.7
20260901145826 82 100 1.0 2.0 0.00 0.24 0.00 58 1019.2
20260901145318 81 169 0.0 2.0 0.00 0.24 0.00 59 1019.2
20260901144826 81 96 0.0 2.0 0.00 0.24 0.00 59 1019.1
20260901144527 80 87 0.0 2.0 0.00 0.24 0.00 63 1015.6
20260901144318 80 82 1.0 2.0 0.00 0.24 0.00 61 1019.1
20260901143825 80 125 0.0 2.0 0.00 0.24 0.00 62 1019.0
20260901143337 79 220 1.0 2.0 0.00 0.24 0.00 63 1019.0
20260901143006 79 192 1.0 2.0 0.00 0.24 0.00 67 1015.6
20260901142823 79 211 1.0 2.0 0.00 0.24 0.00 65 1019.1
20260901142318 79 87 0.0 2.0 0.00 0.24 0.00 64 1019.0
20260901141826 79 87 0.0 2.0 0.00 0.24 0.00 66 1019.0
20260901141516 78 87 0.0 2.0 0.00 0.24 0.00 70 1015.5
20260901141318 78 87 0.0 2.0 0.00 0.24 0.00 66 1019.0
20260901140826 78 87 0.0 2.0 0.00 0.24 0.00 67 1018.9
20260901140318 77 87 0.0 2.0 0.00 0.24 0.00 69 1019.0
20260901140020 77 87 0.0 2.0 0.00 0.24 0.00 73 1015.5
20260901135825 77 87 0.0 2.0 0.00 0.24 0.00 70 1018.9
20260901135316 77 87 0.0 2.0 0.00 0.24 0.00 69 1018.9
20260901134823 77 87 0.0 3.0 0.00 0.24 0.00 71 1018.8
20260901134536 76 87 1.0 3.0 0.00 0.24 0.00 74 1015.4
20260901134318 76 98 1.0 3.0 0.00 0.24 0.00 71 1018.8
20260901133826 76 84 0.0 2.0 0.00 0.24 0.00 71 1018.7
20260901133317 76 84 0.0 2.0 0.00 0.24 0.00 72 1018.7
20260901133006 75 84 0.0 2.0 0.00 0.24 0.00 76 1015.2
20260901132825 76 84 0.0 2.0 0.00 0.24 0.00 72 1018.6
20260901132316 75 80 1.0 2.0 0.00 0.24 0.00 74 1018.5
20260901131822 75 89 1.0 3.0 0.00 0.24 0.00 74 1018.5
20260901131512 74 82 2.0 3.0 0.00 0.24 0.00 78 1015.1
20260901131313 75 80 1.0 2.0 0.00 0.24 0.00 75 1018.4
20260901130820 74 112 0.0 2.0 0.00 0.24 0.00 76 1018.4
20260901130332 74 112 0.0 0.0 0.00 0.24 0.00 76 1018.4
20260901130016 74 112 0.0 0.0 0.00 0.24 0.00 79 1015.0
20260901125819 75 112 0.0 0.0 0.00 0.24 0.00 75 1018.5
20260901125314 74 112 0.0 0.0 0.00 0.24 0.00 75 1018.4
20260901124822 75 112 0.0 2.0 0.00 0.24 0.00 75 1018.5
20260901124524 74 112 0.0 2.0 0.00 0.24 0.00 79 1015.0
20260901124313 74 112 0.0 2.0 0.00 0.24 0.00 75 1018.4
20260901123821 74 112 0.0 2.0 0.00 0.24 0.00 76 1018.4
20260901123352 74 112 0.0 0.0 0.00 0.24 0.00 76 1018.4
20260901123033 74 112 0.0 0.0 0.00 0.24 0.00 80 1014.9
20260901122818 74 112 0.0 1.0 0.00 0.24 0.00 76 1018.3
20260901122349 74 112 0.0 2.0 0.00 0.24 0.00 75 1018.3
20260901121816 74 112 0.0 0.0 0.00 0.24 0.00 76 1018.2
20260901121508 74 112 0.0 0.0 0.00 0.24 0.00 79 1014.6
20260901121327 75 112 0.0 0.0 0.00 0.24 0.00 76 1018.1
20260901120813 75 112 0.0 0.0 0.00 0.24 0.00 75 1018.1
20260901120324 74 112 0.0 0.0 0.00 0.24 0.00 76 1018.1
20260901120013 74 112 0.0 0.0 0.00 0.24 0.00 79 1014.5
20260901115816 75 112 0.0 0.0 0.00 0.24 0.00 75 1018.1
20260901115347 75 112 0.0 0.0 0.00 0.24 0.00 75 1018.0
20260901114814 75 112 0.0 2.0 0.00 0.24 0.00 75 1018.0
20260901114522 74 112 0.0 2.0 0.00 0.24 0.00 79 1014.4
20260901114345 75 112 0.0 2.0 0.00 0.24 0.00 75 1017.9
20260901113830 75 110 1.0 2.0 0.00 0.24 0.00 75 1017.9
20260901113320 75 81 0.0 2.0 0.00 0.24 0.00 74 1017.9
20260901113026 75 81 0.0 2.0 0.00 0.24 0.00 78 1014.3
20260901112828 75 81 0.0 2.0 0.00 0.24 0.00 74 1017.7
20260901112318 75 81 0.0 0.0 0.00 0.24 0.00 73 1017.7
20260901111826 75 81 0.0 0.0 0.00 0.24 0.00 73 1017.7
20260901111530 75 81 0.0 1.0 0.00 0.24 0.00 77 1014.3
20260901111317 75 81 0.0 1.0 0.00 0.24 0.00 73 1017.7
20260901110844 75 81 0.0 2.0 0.00 0.24 0.00 73 1017.7
20260901110315 75 81 0.0 2.0 0.00 0.24 0.00 73 1017.7
20260901110023 75 81 0.0 2.0 0.00 0.24 0.00 76 1014.3
20260901105842 75 81 0.0 2.0 0.00 0.24 0.00 73 1017.7
20260901105315 75 81 0.0 2.0 0.00 0.24 0.00 73 1017.8
20260901104823 75 81 0.0 0.0 0.00 0.24 0.00 73 1017.9
20260901104516 75 81 0.0 0.0 0.00 0.24 0.00 77 1014.4
20260901104334 75 81 0.0 0.0 0.00 0.24 0.00 74 1017.9
20260901103821 76 81 0.0 0.0 0.00 0.24 0.00 72 1018.0
20260901103331 76 81 0.0 2.0 0.00 0.24 0.00 72 1017.9
20260901103028 75 81 0.0 2.0 0.00 0.24 0.00 76 1014.4
20260901102818 76 81 0.0 2.0 0.00 0.24 0.00 72 1017.9
20260901102329 76 81 0.0 2.0 0.00 0.24 0.00 72 1018.0
20260901101816 76 81 0.0 2.0 0.00 0.24 0.00 72 1017.9
20260901101533 75 81 0.0 2.0 0.00 0.24 0.00 76 1014.4
20260901101327 76 81 0.0 2.0 0.00 0.24 0.00 72 1018.0
20260901100815 76 81 0.0 2.0 0.00 0.24 0.00 72 1017.9
20260901100346 76 81 0.0 1.0 0.00 0.24 0.00 73 1017.9
20260901100030 75 81 0.0 2.0 0.00 0.24 0.00 77 1014.4
20260901095816 76 81 0.0 2.0 0.00 0.24 0.00 74 1017.9
20260901095327 76 81 0.0 2.0 0.00 0.24 0.00 74 1017.9
20260901094815 75 81 0.0 0.0 0.00 0.24 0.00 74 1018.0
20260901094516 75 81 0.0 0.0 0.00 0.24 0.00 78 1014.5
20260901094326 76 81 0.0 0.0 0.00 0.24 0.00 74 1018.0
20260901093814 76 81 0.0 0.0 0.00 0.24 0.00 75 1018.1
20260901093325 76 81 0.0 0.0 0.00 0.24 0.00 74 1018.1
20260901093021 75 81 0.0 0.0 0.00 0.24 0.00 78 1014.6
20260901092832 76 81 0.0 0.0 0.00 0.24 0.00 75 1018.1
20260901092323 76 81 0.0 0.0 0.00 0.24 0.00 75 1018.1
20260901091814 76 81 0.0 0.0 0.00 0.24 0.00 75 1018.2
20260901091527 75 81 0.0 0.0 0.00 0.24 0.00 79 1014.7
20260901091325 76 81 0.0 0.0 0.00 0.24 0.00 75 1018.2
20260901090852 76 81 0.0 2.0 0.00 0.24 0.00 74 1018.1